Flag for U.S.A. Weather for the Past 2 Weeks in Avalon (Santa Catalina Island), California, U.S.A.

Now
65 °F

Sunny.


Feels Like: 65 °F
Forecast: 55 / 67 °F
Wind: 8 mph from Northeast

Location: Catalina Airport

Current Time: Feb 5, 2016 at 2:18:12 PM

Latest Report: Feb 5, 2016 at 12:51 PM


Visibility: 10 mi

Pressure: 30.28 "Hg

Humidity: 21%

Dew point: 24 °F

Location of Avalon (Santa Catalina Island)Location

Historic Weather in Avalon (Santa Catalina Island) — Graph

°F

Avalon (Santa Catalina Island) Temperature Yesterday

Maximum temperature yesterday: 60 °F (at 1:51 PM)
Minimum temperature yesterday: 49 °F (at 3:51 AM)
Average temperature yesterday: 55 °F

High & Low Weather Summary for the Past Weeks

 TemperatureHumidityPressure
High67 °F (Jan 21, 1:51 PM)100% (Jan 22, 12:51 AM)30.37 "Hg (Jan 22, 12:51 AM)
Low43 °F (Feb 2, 5:51 AM)10% (Jan 27, 5:51 AM)29.64 "Hg (Jan 31, 12:54 PM)
Average54 °F59%30.11 "Hg
* Reported Jan 21 11:51 AM — Feb 5 11:51 AM, Avalon (Santa Catalina Island), Weather by CustomWeather, © 2016

Note: Actual official high and low records may vary slightly from our data, if they occured in-between our weather recording intervals... More about our weather records

Advertising

Avalon (Santa Catalina Island) Weather History for the Previous 24 Hours

 ConditionsComfort  
Time TempWeatherWind HumidityBarometerVisibility
11:51 AM
Fri, Feb 5
64 °FSunny.9 mph17%30.30 "Hg10 mi
10:51 AM63 °FSunny.12 mph16%30.31 "Hg10 mi
9:51 AM62 °FSunny.10 mph17%30.32 "Hg10 mi
8:51 AM60 °FSunny.6 mph20%30.31 "Hg10 mi
7:51 AM57 °FSunny.7 mph24%30.31 "Hg10 mi
6:51 AM58 °FSunny.6 mph18%30.30 "Hg10 mi
5:51 AM58 °FClear.No wind19%30.28 "Hg10 mi
4:51 AM55 °FClear.7 mph23%30.27 "Hg10 mi
3:51 AM57 °FClear.5 mph19%30.25 "Hg10 mi
2:51 AM54 °FClear.7 mph24%30.26 "Hg10 mi
1:51 AM56 °FClear.12 mph21%30.25 "Hg10 mi
12:51 AM55 °FClear.12 mph25%30.25 "Hg10 mi
11:51 PM
Thu, Feb 4
56 °FClear.9 mph26%30.26 "Hg10 mi
10:51 PM58 °FClear.9 mph22%30.26 "Hg10 mi
9:51 PM57 °FClear.8 mph24%30.26 "Hg10 mi
8:51 PM55 °FClear.8 mph33%30.26 "Hg10 mi
7:51 PM55 °FClear.8 mph37%30.25 "Hg10 mi
6:51 PM54 °FClear.13 mph41%30.24 "Hg10 mi
5:51 PM56 °FClear.8 mph22%30.23 "Hg10 mi
4:51 PM57 °FSunny.7 mph22%30.23 "Hg10 mi
3:51 PM60 °FSunny.No wind21%30.22 "Hg10 mi
2:51 PM60 °FSunny.6 mph21%30.23 "Hg10 mi
Weather by CustomWeather, © 2016

See weather overviewHow to use our weather pages